Rome Ciampino, Italy

9:28 AM CET on January 17, 2018 (GMT +0100)
Ciampino

Weather History for LIRA - November, 2012

Change the Weather History Date:

Saturday, November 3, 2012

  Actual Average Record
Temperature  
Mean Temperature 57 °F -  
Max Temperature 64 °F 60 °F 75 °F (2008)
Min Temperature 50 °F 44 °F 37 °F (2006)
Degree Days  
Heating Degree Days 8    
Growing Degree Days 7 (Base 50)    
Moisture  
Dew Point 53 °F    
Average Humidity 81    
Maximum Humidity 94    
Minimum Humidity 68    
Precipitation  
Precipitation 0.00 in 0.17 in - ()
Sea Level Pressure  
Sea Level Pressure 30.02 in    
Wind  
Wind Speed 6 mph ()    
Max Wind Speed 13 mph    
Max Gust Speed -    
Visibility 6.2 miles    
Events Rain    
Averages and records for this station are not official NWS values.
T = Trace of Precipitation, MM = Missing Value Source: Averaged Metar Reports

Daily Weather History Graph

Daily Weather History Graph

Search for Another Location

Airport or City:

Trip Planner

Search our weather history database for the weather conditions in past years. The results will help you decide how hot, cold, wet, or windy it might be!

Date:

Astronomy

Nov. 03, 2012 Rise Set
Actual Time 6:44 AM CET 5:01 PM CET
Civil Twilight 6:15 AM CET 5:30 PM CET
Nautical Twilight 5:42 AM CET 6:03 PM CET
Astronomical Twilight 5:10 AM CET 6:35 PM CET
Moon 8:25 PM CET (11/3) 10:38 AM CET (11/3)
Length of Visible Light 11h 14m
Length of Day
10h 16m
Waning Gibbous, 82% of the Moon is Illuminated
Nov 3
Waning Gibbous
Nov 7
Last Quarter
Nov 13
New
Nov 20
First Quarter
Nov 28
Full

Hourly Weather History & Observations

Time (CET) Temp. Dew Point Humidity Pressure Visibility Wind Dir Wind Speed Gust Speed Precip Events Conditions
12:15 AM 53.6 °F 50.0 °F 88% 29.98 in - SSE 4.6 mph - N/A   Clear
12:45 AM 55.4 °F 51.8 °F 88% 29.98 in - SSE 5.8 mph - N/A   Clear
1:15 AM 57.2 °F 53.6 °F 88% 29.98 in 6.2 mi South 6.9 mph - N/A   Partly Cloudy
1:45 AM 57.2 °F 53.6 °F 88% 29.98 in 6.2 mi SSE 5.8 mph - N/A   Partly Cloudy
2:15 AM 53.6 °F 50.0 °F 88% 30.01 in 6.2 mi SE 5.8 mph - N/A   Scattered Clouds
2:45 AM 55.4 °F 51.8 °F 88% 30.01 in 6.2 mi SSE 6.9 mph - N/A   Scattered Clouds
3:15 AM 55.4 °F 51.8 °F 88% 30.01 in 6.2 mi SSE 4.6 mph - N/A   Scattered Clouds
3:45 AM 53.6 °F 50.0 °F 88% 30.01 in 6.2 mi SSE 4.6 mph - N/A   Partly Cloudy
4:15 AM 55.4 °F 51.8 °F 88% 30.01 in 6.2 mi SSE 5.8 mph - N/A   Partly Cloudy
4:45 AM 53.6 °F 50.0 °F 88% 30.01 in 6.2 mi SSE 6.9 mph - N/A   Partly Cloudy
5:15 AM 53.6 °F 51.8 °F 94% 30.01 in 6.2 mi SE 6.9 mph - N/A   Partly Cloudy
5:45 AM 53.6 °F 50.0 °F 88% 30.01 in 6.2 mi SE 4.6 mph - N/A   Partly Cloudy
6:15 AM 50.0 °F 48.2 °F 94% 30.01 in 6.2 mi SE 4.6 mph - N/A   Partly Cloudy
6:45 AM 50.0 °F 46.4 °F 87% 30.01 in 6.2 mi SSE 2.3 mph - N/A   Scattered Clouds
7:15 AM 53.6 °F 50.0 °F 88% 30.01 in 6.2 mi SE 6.9 mph - N/A   Scattered Clouds
7:45 AM 55.4 °F 51.8 °F 88% 30.01 in 6.2 mi SE 6.9 mph - N/A   Scattered Clouds
8:15 AM 57.2 °F 53.6 °F 88% 30.04 in 6.2 mi SSE 5.8 mph - N/A   Scattered Clouds
8:45 AM 60.8 °F 55.4 °F 82% 30.04 in 6.2 mi South 4.6 mph - N/A   Scattered Clouds
9:15 AM 62.6 °F 55.4 °F 77% 30.04 in 6.2 mi SSE 8.1 mph - N/A   Scattered Clouds
9:45 AM 62.6 °F 55.4 °F 77% 30.04 in 6.2 mi SSE 6.9 mph - N/A   Scattered Clouds
10:15 AM 64.4 °F 55.4 °F 73% 30.04 in 6.2 mi South 9.2 mph - N/A   Scattered Clouds
10:45 AM 62.6 °F 55.4 °F 77% 30.06 in 6.2 mi South 10.4 mph - N/A   Scattered Clouds
11:15 AM 64.4 °F 55.4 °F 73% 30.06 in 6.2 mi South 8.1 mph - N/A   Scattered Clouds
11:45 AM 62.6 °F 53.6 °F 72% 30.06 in 6.2 mi South 10.4 mph - N/A   Scattered Clouds
12:15 PM 64.4 °F 55.4 °F 73% 30.06 in 6.2 mi SSE 10.4 mph - N/A   Scattered Clouds
12:45 PM 64.4 °F 55.4 °F 73% 30.06 in 6.2 mi South 10.4 mph - N/A   Scattered Clouds
1:15 PM 64.4 °F 55.4 °F 73% 30.04 in 6.2 mi South 9.2 mph - N/A   Scattered Clouds
1:45 PM 64.4 °F 55.4 °F 73% 30.04 in 6.2 mi South 10.4 mph - N/A   Scattered Clouds
2:15 PM 62.6 °F 55.4 °F 77% 30.04 in 6.2 mi South 8.1 mph - N/A   Scattered Clouds
2:45 PM 62.6 °F 55.4 °F 77% 30.01 in 6.2 mi South 9.2 mph - N/A   Scattered Clouds
3:15 PM 62.6 °F 55.4 °F 77% 30.01 in 6.2 mi SSE 10.4 mph - N/A   Scattered Clouds
3:45 PM 62.6 °F 55.4 °F 77% 30.01 in 6.2 mi SSE 10.4 mph - N/A   Scattered Clouds
4:15 PM 62.6 °F 55.4 °F 77% 30.01 in 6.2 mi SSE 10.4 mph - N/A   Scattered Clouds
4:45 PM 60.8 °F 55.4 °F 82% 30.01 in 6.2 mi SSE 6.9 mph - N/A   Scattered Clouds
5:15 PM 60.8 °F 55.4 °F 82% 30.01 in 6.2 mi SSE 8.1 mph - N/A   Scattered Clouds
5:45 PM 60.8 °F 55.4 °F 82% 30.01 in 6.2 mi SE 8.1 mph - N/A   Scattered Clouds
6:15 PM 60.8 °F 55.4 °F 82% 30.01 in 6.2 mi SE 6.9 mph - N/A   Mostly Cloudy
6:45 PM 60.8 °F 57.2 °F 88% 30.04 in 6.2 mi SE 9.2 mph - N/A   Scattered Clouds
7:15 PM 60.8 °F 55.4 °F 82% 30.01 in 6.2 mi SE 6.9 mph - N/A   Scattered Clouds
7:45 PM 60.8 °F 53.6 °F 77% 30.01 in 6.2 mi SE 8.1 mph - N/A   Scattered Clouds
8:15 PM 60.8 °F 53.6 °F 77% 30.01 in 6.2 mi SSE 8.1 mph - N/A   Scattered Clouds
8:45 PM 60.8 °F 53.6 °F 77% 30.01 in 6.2 mi SSE 6.9 mph - N/A   Mostly Cloudy
9:15 PM 62.6 °F 51.8 °F 68% 30.01 in 6.2 mi SE 10.4 mph - N/A   Mostly Cloudy
9:45 PM 62.6 °F 51.8 °F 68% 30.01 in 6.2 mi SSE 9.2 mph - N/A   Mostly Cloudy
10:15 PM 62.6 °F 53.6 °F 72% 30.01 in 6.2 mi SE 11.5 mph - N/A   Mostly Cloudy
10:45 PM 62.6 °F 53.6 °F 72% 30.01 in 6.2 mi SE 12.7 mph - N/A   Mostly Cloudy
11:15 PM 62.6 °F 53.6 °F 72% 30.01 in 6.2 mi SSE 12.7 mph - N/A Rain Light Rain
11:45 PM 62.6 °F 55.4 °F 77% 30.01 in 6.2 mi SE 5.8 mph - N/A Rain Light Rain